SCP
0 0 0 0 0 0 0 0 0 0 0 0 0 0 0 0 0 0 0 0 0 0 0 0 0 0 0 0 0 0 0 0 0 0 0 0 0 0 0 0 0 0 0
0 0 0 0 0 0 0 0 0 0 0 0 0 0 0 0 0 0 0 0 0 0 0 0 0 0 0 0 0 0 0 0 0 0 0 0 0 0 0 0 0 0 0
0 0 0 0 0 0 0 0 0 0 0 0 0 0 0 0 0 0 0 0 0 0 0 0 0 0 0 0 0 0 0 0 0 0 0 0 0 0 0 0 0 0 0
0 0 0 0 0 0 0 0 0 0 0 0 0 0 0 0 0 0 0 0 0 0 0 0 0 0 0 0 0 0 0 0 0 0 0 0 0 0 0 0 0 0 0
0 0 0 0 0 0 0 0 0 0 0 0 0 0 0 0 0 0 0 0 0 0 0 0 0 0 0 0 0 0 0 0 0 0 0 0 0 0 0 0 0 0 0
0 0 0 0 0 0 0 0 0 0 0 0 0 0 0 0 0 0 0 0 0 0 0 0 0 0 0 0 0 0 0 0 0 0 0 0 0 0 0 0 0 0 0
0 0 0 0 0 0 0 0 0 0 0 0 0 0 0 0 0 0 0 0 0 0 0 0 0 0 0 0 0 0 0 0 0 0 0 0 0 0 0 0 0 0 0
0 0 0 0 0 0 0 0 0 0 0 0 0 0 0 0 0 0 0 0 0 0 0 0 0 0 0 0 0 0 0 0 0 0 0 0 0 0 0 0 0 0 0
0 0 0 0 0 0 0 0 0 0 0 0 0 0 0 0 0 0 0 0 0 0 0 0 0 0 0 0 0 0 0 0 0 0 0 0 0 0 0 0 0 0 0
0 0 0 0 0 0 0 0 0 0 0 0 0 0 0 0 0 0 0 0 0 0 0 0 -0 -0 0 0 0 0 0 0 0 0 0 0 0 0 0 0 0 0 0
0 0 0 0 0 0 0 0 0 0 0 0 0 0 0 0 0 0 0 0 0 0 0 0 0 0 0 0 0 0 0 0 0 0 0 0 0 0 0 0 0 0 0
0 0 0 0 0 0 0 0 0 0 0 0 0 0 0 0 0 0 0 0 0 0 0 0 0 0 0 0 0 0 0 0 0 0 0 0 0 0 0 0 0 0 0
0 0 0 0 0 0 0 0 0 0 0 0 0 0 0 0 0 0 0 0 0 0 0 0 0 0 0 0 0 0 0 0 0 0 0 0 0 0 0 0 0 0 0
0 0 0 0 0 0 0 0 0 0 0 0 0 0 0 0 0 0 0 0 0 0 0 0 0 0 0 0 0 0 0 0 0 0 0 0 0 0 0 0 0 0 0
0 0 0 0 0 0 0 0 0 0 0 0 0 0 0 0 0 0 0 0 0 0 0 0 0 0 0 0 0 0 0 0 0 0 0 0 0 0 0 0 0 0 0
0 0 0 0 0 0 0 0 0 0 0 0 0 0 0 0 0 0 0 0 0 0 0 0 0 0 0 0 0 0 0 0 0 0 0 0 0 0 0 0 0 0 0
0 0 0 0 0 0 0 0 0 0 0 0 0 0 0 0 0 0 0 0 0 0 0 0 0 0 0 0 0 0 0 0 0 0 0 0 0 0 0 0 0 0 0
0 0 0 0 0 0 0 0 0 0 0 0 0 0 0 0 0 0 0 0 0 0 0 0 0 0 0 0 0 0 0 0 0 0 0 0 0 0 0 0 0 0 0
0 0 0 0 0 0 0 0 0 0 0 0 0 0 0 0 0 0 0 0 0 0 0 0 0 0 0 0 0 0 0 0 0 0 0 0 0 0 0 0 0 0 0
0 0 0 0 0 0 0 0 0 0 0 0 0 0 0 0 0 0 0 0 0 0 0 0 0 0 0 0 0 0 0 0 0 0 0 0 0 0 0 0 0 0 0
0 0 0 0 0 0 0 0 0 0 0 0 0 0 0 0 0 0 0 0 0 0 0 0 0 0 0 0 0 0 0 0 0 0 0 0 0 0 0 0 0 0 0
0 0 0 0 0 0 0 0 0 0 0 0 0 0 0 0 0 0 0 0 0 0 0 0 0 0 0 0 0 0 0 0 0 0 0 0 0 0 0 0 0 0 0
0 0 0 0 0 0 0 0 0 0 0 0 0 0 0 0 0 0 0 0 0 0 0 0 0 0 0 0 0 0 0 0 0 0 0 0 0 0 0 0 0 0 0
0 0 0 0 0 0 0 0 0 0 0 0 0 0 0 0 0 0 0 0 0 0 0 0 0 0 0 0 0 0 0 0 0 0 0 0 0 0 0 0 0 0 0
0 0 0 0 0 0 0 0 0 0 0 0 0 0 0 0 0 0 0 0 0 0 0 0 0 0 0 0 0 0 0 0 0 0 0 0 0 0 0 0 0 0 0
0 0 0 0 0 0 0 0 0 0 0 0 0 0 0 0 0 0 0 0 0 0 0 0 0 0 0 0 0 0 0 0 0 0 0 0 0 0 0 0 0 0 0
Wind_Speed
10 8 8 7 7 7 7 7 7 6 7 7 7 6 6 5 5 4 3 3 3 2 2 2 2 1 2 2 2 2 2 3 2 2 1 1 1 2 2 2 3 3 4
9 8 8 8 7 7 7 7 7 7 7 7 7 7 6 6 5 5 5 4 4 4 3 3 2 2 2 1 1 1 1 2 3 2 1 1 2 2 2 3 3 3 4
9 8 8 8 8 7 7 7 7 7 7 7 7 7 6 6 6 5 5 5 5 4 4 4 3 3 2 1 1 1 1 1 2 2 2 1 2 1 1 2 2 2 3
9 9 9 9 8 8 7 7 7 7 7 7 7 7 6 6 6 5 5 5 4 4 4 4 4 4 4 3 2 2 1 1 1 1 1 1 1 1 0 1 2 2 3
10 9 9 8 8 7 7 7 7 7 8 7 6 6 6 5 6 6 5 5 4 4 3 4 4 6 6 5 3 3 2 2 1 1 1 1 1 1 1 1 2 3 3
10 10 9 8 8 8 8 7 7 7 6 6 6 6 6 6 8 10 7 5 5 5 4 3 4 5 6 6 6 7 6 4 3 2 2 3 4 3 2 2 1 1 3
10 9 9 9 9 9 9 8 8 7 6 6 6 6 6 6 9 10 10 6 5 5 5 4 4 4 5 3 4 4 5 7 8 5 4 5 4 4 3 2 3 3 4
10 10 10 10 9 8 8 8 8 6 6 6 6 6 6 7 10 10 10 6 5 5 5 5 4 4 5 5 4 3 4 5 6 6 6 6 6 5 5 4 4 3 4
11 11 11 10 10 9 9 9 7 7 6 6 6 7 7 7 10 11 9 4 4 5 5 5 6 6 9 9 5 5 5 5 7 9 9 8 9 8 5 2 2 1 4
11 10 10 10 10 10 10 8 6 6 7 7 6 7 7 7 10 12 11 4 4 4 4 4 7 7 9 9 6 5 6 6 4 3 4 6 6 7 8 6 5 4 3
9 9 9 9 10 10 9 7 6 6 6 6 6 6 7 8 10 13 12 6 6 5 4 4 4 7 8 8 8 6 8 6 3 4 4 4 4 4 4 5 6 5 5
8 8 8 8 9 8 8 7 7 7 7 6 6 5 5 6 8 10 13 12 8 5 5 4 4 7 8 8 7 7 9 5 2 2 3 4 4 4 5 5 6 7 7
8 8 8 8 7 7 8 8 6 6 6 6 5 6 5 4 6 10 13 13 12 6 5 6 6 7 7 6 8 9 6 3 3 3 4 5 4 5 4 3 4 5 5
8 8 7 7 7 6 6 6 6 7 7 6 7 6 5 4 4 5 5 7 8 7 4 4 5 5 4 4 4 4 4 4 4 5 4 5 3 3 3 3 3 3 3
7 6 6 6 6 6 5 4 6 6 7 8 7 6 6 6 8 9 7 6 6 6 4 2 1 1 2 2 2 3 3 2 4 4 4 4 4 4 4 3 3 2 3
5 5 4 4 4 4 4 3 1 2 4 6 6 6 4 5 7 9 9 9 9 8 5 3 3 4 4 3 3 3 3 3 4 3 3 4 4 4 4 3 3 3 4
4 3 3 3 4 4 4 4 3 2 4 3 3 5 5 6 6 7 7 7 6 8 4 3 3 4 3 3 3 3 3 3 3 3 3 3 3 3 3 3 3 3 4
3 3 3 2 2 3 3 4 4 4 2 1 1 2 4 5 5 5 6 6 3 3 2 3 3 3 3 3 3 3 3 2 2 2 3 3 3 3 3 3 3 4 4
3 2 2 2 2 2 3 3 3 4 3 2 2 1 2 3 4 4 6 4 3 3 3 2 2 2 2 1 1 1 1 2 2 2 3 3 3 3 3 4 4 5 5
3 5 4 3 3 3 2 3 3 3 3 3 2 2 3 4 3 3 2 2 2 2 1 1 1 1 1 1 1 1 1 1 2 2 2 2 2 3 4 4 4 4 5
4 5 6 4 3 2 3 3 3 3 3 3 2 2 5 4 3 3 3 2 1 1 1 1 1 1 1 0 0 0 1 1 2 2 2 2 2 3 3 4 4 5 5
5 5 5 5 4 4 4 4 4 4 4 4 3 4 5 3 2 2 2 2 2 2 2 2 1 1 1 1 1 1 1 1 2 2 2 3 3 3 4 4 5 5 5
6 7 6 6 5 6 6 5 5 5 5 4 4 4 3 2 2 2 1 1 1 1 1 1 1 1 0 1 1 1 2 2 2 2 3 3 4 4 4 5 6 6 6
7 7 7 6 6 6 5 5 5 5 5 4 4 3 3 2 2 2 2 2 2 2 2 1 1 1 1 1 0 0 1 1 2 2 3 4 5 5 5 5 6 7 7
8 8 8 7 7 6 6 6 6 6 5 5 4 4 4 4 4 4 3 3 3 3 3 2 1 1 1 1 1 1 2 2 3 3 3 4 5 5 5 6 6 6 6
8 8 7 7 6 6 6 6 6 5 5 5 5 5 4 4 4 3 3 3 3 3 3 3 3 3 3 3 4 4 4 4 4 5 3 3 4 5 5 5 7 6 6
Wind_Direction
173 173 167 169 168 164 169 174 173 172 167 168 168 167 166 164 160 158 168 166 164 164 153 137 139 126 98 82 86 97 118 135 161 259 271 264 209 228 241 243 245 243 253
172 166 164 166 166 167 171 173 169 169 170 170 168 169 173 171 171 175 185 178 172 170 168 150 160 129 104 98 101 103 132 154 152 186 270 273 247 238 243 253 255 247 248
167 165 165 167 168 171 172 169 166 165 167 168 165 170 177 177 178 184 184 179 179 181 177 172 174 146 141 147 137 143 166 132 132 154 234 264 276 278 288 289 284 287 274
167 168 170 173 174 172 169 166 166 165 168 172 173 177 179 180 181 181 178 175 178 186 185 183 184 176 180 180 174 183 164 120 119 143 214 271 284 304 54 299 309 301 292
168 172 175 173 169 165 166 168 167 169 176 175 172 176 178 179 186 179 179 180 180 187 191 190 194 192 193 189 183 184 161 148 144 148 214 282 282 291 257 247 261 292 294
171 175 171 167 168 170 171 170 170 174 175 173 174 175 182 193 190 185 180 178 180 182 191 204 207 202 202 199 198 193 181 176 183 187 210 222 243 237 235 228 233 297 295
171 173 171 171 172 176 178 174 177 178 175 178 182 179 187 198 193 192 189 174 179 186 187 192 211 210 201 204 215 220 221 215 201 187 203 221 224 222 208 227 228 224 240
173 174 174 173 175 175 176 181 183 178 179 182 185 188 191 203 198 196 193 184 185 191 190 190 199 216 216 204 211 225 239 240 224 209 210 225 227 222 208 211 223 247 269
177 179 179 176 175 177 184 187 184 180 184 186 184 186 192 203 199 197 184 178 190 204 209 205 203 215 227 216 206 221 245 261 254 233 224 233 238 237 221 198 236 251 283
181 180 178 177 177 182 187 186 181 179 186 185 189 192 193 200 202 200 189 183 195 211 222 225 222 221 228 217 205 209 232 249 254 262 252 256 252 252 238 213 210 218 243
176 172 174 179 181 182 182 181 177 179 179 187 194 200 200 203 205 203 196 191 199 206 217 225 230 223 223 220 208 208 225 230 232 239 252 262 264 258 250 229 212 208 219
166 171 176 180 185 184 179 181 179 180 186 194 197 207 213 209 205 206 202 203 198 197 213 218 223 221 224 227 222 228 232 228 223 237 252 258 258 258 254 246 232 225 226
168 176 180 182 186 178 179 181 180 184 191 199 200 210 216 210 210 207 203 207 207 206 216 219 226 231 232 234 234 234 228 213 212 231 246 251 247 250 258 266 265 249 248
172 180 182 182 185 181 183 184 187 193 199 203 206 210 209 205 208 201 201 208 212 219 229 230 231 232 232 241 248 242 222 212 212 229 242 252 257 260 258 254 261 269 274
172 177 180 182 182 182 179 185 194 203 204 200 205 199 197 210 216 201 189 195 198 204 187 191 208 222 240 245 245 245 233 225 231 238 243 256 262 264 265 260 251 252 251
165 172 176 176 175 170 165 163 133 162 185 191 196 187 199 203 187 185 190 195 195 178 163 192 215 219 224 229 234 243 235 234 238 239 243 247 252 257 266 268 254 247 255
152 161 159 163 165 166 166 165 157 77 68 100 165 178 175 170 168 170 176 175 171 158 170 207 215 217 221 224 229 232 241 244 239 236 243 248 252 257 262 268 270 268 267
113 123 125 140 150 156 162 162 159 155 145 85 49 152 166 165 164 164 155 135 124 157 193 206 215 222 227 234 236 237 245 251 243 242 245 248 247 250 259 264 262 260 266
96 108 118 125 133 140 141 142 145 147 146 139 106 84 122 122 104 111 131 132 150 177 200 207 209 210 217 223 237 248 253 259 262 252 249 249 248 247 254 258 261 267 267
68 74 88 95 101 112 123 130 136 137 137 140 137 140 129 110 100 104 122 130 139 155 171 189 207 200 198 198 206 233 265 275 272 263 265 264 260 255 259 263 266 270 269
61 63 67 75 82 100 109 116 121 122 121 122 128 131 140 134 139 137 134 143 159 162 159 162 191 202 202 199 212 270 283 287 281 277 280 281 280 275 272 272 275 275 278
59 59 63 69 67 70 79 86 94 99 101 102 95 95 114 112 117 123 136 153 172 175 168 164 182 192 187 190 196 201 247 278 285 286 285 285 282 280 281 279 279 278 277
62 63 63 63 67 71 73 73 77 81 81 81 81 81 86 89 92 103 121 140 136 133 137 152 165 176 148 165 176 181 204 238 253 261 274 282 284 284 283 280 279 280 279
63 64 63 60 59 62 67 69 70 72 74 75 74 80 85 84 67 58 55 53 55 51 49 67 101 104 85 68 78 198 246 274 283 274 275 277 281 284 284 281 279 278 279
60 62 61 58 58 60 64 69 69 66 63 62 63 65 64 64 60 51 45 47 52 50 45 47 55 59 73 55 23 356 338 324 310 305 288 276 278 282 284 284 284 284 282
60 61 61 60 57 57 59 61 63 63 61 58 56 58 60 59 57 51 44 47 49 43 36 35 39 36 27 27 18 6 350 335 326 318 303 284 282 286 295 292 291 290 287